sat.trackr.live / text

‹ back to catalog

STARLINK-35724

NORAD 66279 · 2025-247Q

PAYLOAD ACTIVE UNKNOWN

§ Identity

Operator
Country
US
Launch date
2025-10-31
Launch site
AFWTR
Launch vehicle
Mass (kg)
RCS (m²)

Purposes: comms

External: N2YO · Heavens-Above · Gunter

§ Orbital elements

Epoch: 2026-05-25T03:10:08.890176Z

Period
94.11 min
Inclination
53.1583°
Eccentricity
0.0001118
Mean motion
15.30186246 rev/d
Perigee alt
474.5 km
Apogee alt
476.0 km
Semi-major
6,853.4 km
B*
3.5774e-4
RAAN
196.6346°
Arg perigee
95.1871°
Mean anomaly
264.9257°
Rev number
3,273

§ Raw data

STARLINK-357241 66279U 25247Q   26145.13204734  .00010246  00000+0  35774-3 0  99932 66279  53.1583 196.6346 0001118  95.1871 264.9257 15.30186246 32730

JSON: /api/v1/satellites/66279 · /tle

For live sub-satellite position, see the globe view (requires WebGL).

§ Visibility from observer

Set your observer location to see the next 7 days of passes ≥ 10°. The values pass through the URL so the page stays shareable.

No JS? Fill the form by hand. The geolocation button needs JavaScript.